Temp
1 -0 -1 -1 -1 -2 -2 -2 -2 -3 -4 -4 -5 -6 -7 -7 -7 -7 -7 -7 -7 -8 -8 -7 -7 -7 -7 -7 -6 -5 -5 -4 -3 -2 -1 0 1 1 2 3 5 8 9
0 -0 -1 -0 -1 -1 -1 -2 -2 -4 -4 -5 -6 -7 -7 -7 -7 -7 -7 -7 -7 -7 -8 -8 -8 -7 -7 -7 -7 -7 -5 -4 -3 -2 -1 -0 0 1 2 3 5 7 8
0 0 1 1 0 -1 -1 -2 -3 -4 -5 -6 -7 -7 -7 -7 -7 -7 -7 -7 -7 -7 -8 -8 -8 -8 -8 -7 -7 -7 -5 -4 -4 -3 -2 -0 0 1 2 2 4 8 7
1 1 2 1 0 -1 -1 -3 -3 -5 -6 -7 -7 -7 -7 -7 -7 -7 -7 -7 -7 -7 -7 -7 -8 -7 -7 -7 -7 -6 -5 -4 -4 -3 -2 -0 1 1 2 2 3 5 7
1 2 1 1 0 -0 -1 -2 -3 -5 -6 -7 -7 -6 -6 -6 -6 -6 -6 -6 -7 -7 -7 -8 -8 -7 -7 -7 -7 -6 -5 -4 -4 -3 -2 -0 1 1 1 3 5 7 7
2 2 1 1 1 0 -1 -2 -4 -5 -6 -6 -6 -6 -6 -6 -6 -6 -6 -6 -6 -6 -7 -7 -7 -7 -8 -8 -7 -6 -5 -4 -3 -3 -2 0 1 1 2 4 5 6 6
2 1 2 1 1 0 -1 -2 -4 -5 -6 -6 -6 -6 -6 -6 -5 -5 -5 -4 -5 -5 -6 -7 -8 -8 -7 -8 -7 -6 -4 -4 -3 -2 -0 1 1 1 3 3 5 6 6
2 2 1 1 1 1 -1 -3 -4 -5 -6 -6 -6 -6 -6 -5 -5 -4 -4 -4 -5 -5 -6 -6 -7 -7 -7 -7 -7 -6 -4 -3 -2 -1 0 1 1 3 3 4 6 7 6
2 1 1 2 1 1 -1 -3 -5 -6 -6 -6 -6 -6 -5 -5 -4 -4 -4 -5 -6 -6 -6 -7 -7 -7 -7 -7 -6 -4 -3 -2 -1 -0 0 2 2 2 3 5 7 8 7
1 1 1 2 2 1 -0 -3 -6 -6 -5 -5 -5 -5 -5 -4 -3 -3 -4 -6 -6 -7 -7 -6 -6 -6 -5 -4 -3 -2 -1 -1 -1 1 2 2 2 3 4 6 7 7 8
1 2 2 2 1 0 -0 -2 -5 -5 -4 -5 -5 -5 -4 -3 -3 -2 -4 -5 -5 -6 -6 -5 -4 -4 -3 -2 -1 -0 0 1 1 2 2 2 3 3 5 6 7 8 7
2 2 2 2 1 0 1 -1 -4 -4 -4 -4 -4 -4 -4 -3 -2 -2 -2 -4 -2 -0 -2 -3 -3 -2 -1 -1 -0 0 1 1 1 2 3 3 3 4 5 6 6 8 10
3 3 2 2 1 1 1 0 -2 -3 -4 -4 -4 -4 -4 -3 -2 -1 -2 -1 -2 -1 0 1 0 -0 0 0 0 1 1 1 3 3 3 3 4 4 5 6 8 9 9
3 3 2 2 2 2 1 0 -1 -2 -3 -4 -4 -3 -3 -3 -2 -1 -1 -1 -0 -0 0 -0 -0 0 0 1 1 0 0 2 3 4 5 4 5 5 6 7 7 8 8
3 3 2 3 2 2 1 -1 -3 -3 -4 -4 -5 -3 -3 -2 -1 1 2 1 0 -0 0 0 1 0 1 1 1 1 1 2 3 4 4 5 6 5 7 7 8 8 8
4 3 3 3 3 3 3 2 1 -1 -1 -3 -4 -4 -4 -2 -1 1 1 1 1 2 2 1 1 1 1 1 2 2 3 4 4 5 6 7 6 7 7 7 8 8 8
4 4 4 3 3 3 4 4 3 2 1 0 -1 -2 -1 -1 -0 0 1 2 2 3 2 2 2 2 2 2 2 3 4 5 5 6 6 6 7 7 8 8 8 8 8
4 4 4 4 4 3 3 4 4 4 3 2 2 1 -0 -0 0 0 1 2 3 3 2 2 2 2 2 3 4 5 5 5 5 6 6 7 7 8 8 8 7 7 8
5 5 4 4 4 4 4 4 4 4 4 4 4 2 2 2 2 2 3 4 3 3 3 3 3 3 4 4 5 5 5 6 6 6 6 6 6 7 7 7 7 7 7
5 5 5 4 4 4 4 4 4 4 4 4 5 5 4 6 4 3 4 4 3 3 4 5 6 6 6 6 7 6 7 7 7 7 7 7 7 7 7 7 7 7 6
5 5 5 5 5 4 4 4 4 4 4 3 3 4 5 5 4 4 4 4 4 4 5 5 5 6 6 6 7 7 7 7 6 6 7 6 7 7 6 6 5 5 5
5 5 5 5 5 5 4 4 4 4 4 4 4 4 5 5 4 4 3 3 3 4 4 4 5 6 6 6 6 6 6 6 6 6 6 6 5 5 5 5 5 5 4
6 5 5 5 5 5 5 4 4 4 4 4 4 4 5 5 5 5 4 4 4 4 4 4 5 5 5 5 5 6 6 6 5 5 5 5 5 4 4 5 5 5 4
6 6 6 6 5 5 5 5 5 4 4 4 4 4 4 4 5 5 5 5 5 5 5 5 5 5 5 5 5 6 5 5 5 5 5 5 5 5 5 5 4 4 3
7 7 6 6 6 6 5 5 5 5 5 4 4 4 5 4 4 4 4 4 5 5 5 5 5 5 5 5 5 5 4 3 4 4 4 4 4 3 3 3 3 2 2
7 7 7 7 6 6 6 6 5 5 5 5 4 4 4 4 5 5 5 5 5 5 5 4 4 4 4 4 4 4 4 3 4 3 3 3 3 3 2 2 2 1 1
Height
1484 1479 1471 1464 1456 1449 1441 1434 1426 1418 1410 1400 1393 1387 1382 1377 1373 1370 1371 1372 1375 1379 1384 1390 1397 1404 1411 1418 1426 1432 1440 1447 1453 1459 1463 1468 1473 1477 1481 1484 1488 1494 1500
1482 1475 1468 1459 1451 1444 1436 1428 1419 1410 1400 1392 1385 1379 1373 1369 1366 1363 1364 1365 1368 1372 1378 1384 1391 1400 1406 1413 1421 1428 1436 1444 1452 1457 1462 1468 1473 1478 1482 1485 1489 1496 1503
1480 1473 1464 1455 1446 1438 1430 1422 1412 1401 1394 1388 1381 1373 1368 1363 1360 1358 1359 1359 1362 1367 1373 1380 1387 1394 1401 1409 1418 1425 1433 1442 1450 1456 1462 1468 1474 1478 1482 1487 1491 1496 1504
1479 1471 1462 1452 1443 1434 1427 1418 1407 1397 1391 1384 1377 1370 1364 1358 1355 1353 1353 1354 1356 1361 1368 1376 1383 1391 1398 1406 1415 1423 1432 1440 1449 1456 1462 1468 1474 1479 1484 1490 1494 1501 1506
1480 1471 1462 1452 1443 1433 1424 1414 1404 1396 1389 1381 1374 1367 1361 1356 1351 1349 1348 1349 1351 1357 1365 1373 1381 1390 1399 1406 1414 1422 1430 1439 1448 1456 1462 1468 1475 1480 1484 1489 1493 1498 1507
1481 1472 1463 1453 1443 1433 1422 1412 1403 1394 1387 1380 1372 1365 1359 1354 1349 1346 1345 1346 1348 1355 1362 1371 1381 1390 1399 1407 1415 1424 1432 1439 1447 1455 1463 1470 1478 1482 1487 1492 1496 1501 1515
1484 1475 1465 1456 1445 1433 1422 1412 1403 1394 1387 1379 1372 1365 1359 1353 1348 1345 1344 1346 1349 1355 1363 1372 1381 1391 1400 1408 1417 1426 1435 1444 1453 1459 1466 1474 1481 1485 1490 1495 1506 1509 1508
1487 1478 1470 1460 1448 1437 1426 1414 1404 1395 1387 1382 1375 1367 1361 1356 1352 1350 1350 1352 1354 1358 1365 1375 1384 1393 1402 1410 1418 1427 1437 1447 1455 1463 1472 1478 1484 1490 1495 1500 1505 1508 1514
1490 1482 1474 1464 1452 1443 1428 1416 1406 1398 1391 1385 1380 1373 1367 1363 1360 1359 1359 1359 1361 1365 1373 1382 1390 1397 1406 1414 1421 1430 1441 1451 1461 1469 1475 1481 1487 1492 1497 1502 1507 1512 1519
1495 1488 1479 1470 1460 1449 1432 1422 1412 1403 1397 1392 1386 1380 1375 1372 1371 1369 1369 1368 1369 1374 1382 1390 1398 1405 1412 1420 1427 1435 1444 1453 1461 1470 1478 1485 1491 1498 1504 1510 1512 1519 1525
1502 1494 1486 1478 1468 1456 1439 1429 1418 1409 1403 1399 1393 1388 1384 1382 1382 1381 1380 1378 1379 1383 1390 1397 1405 1413 1421 1429 1438 1445 1452 1460 1469 1476 1482 1488 1495 1500 1506 1515 1523 1529 1533
1507 1500 1492 1484 1474 1461 1449 1439 1426 1417 1410 1406 1402 1397 1395 1394 1394 1395 1393 1391 1392 1394 1400 1407 1415 1423 1431 1439 1447 1456 1463 1469 1474 1481 1486 1492 1498 1505 1511 1518 1524 1534 1541
1513 1506 1500 1491 1480 1467 1458 1445 1435 1426 1418 1415 1411 1408 1406 1405 1405 1407 1407 1406 1406 1406 1412 1420 1427 1435 1442 1450 1458 1464 1471 1476 1480 1485 1490 1497 1503 1510 1518 1524 1532 1540 1549
1519 1513 1506 1498 1488 1478 1469 1456 1447 1437 1429 1424 1421 1419 1418 1417 1417 1416 1418 1420 1422 1424 1428 1433 1438 1444 1451 1458 1464 1469 1476 1481 1486 1491 1496 1503 1510 1516 1523 1531 1538 1547 1555
1526 1520 1514 1507 1498 1491 1481 1470 1461 1452 1444 1437 1433 1431 1428 1428 1430 1431 1431 1431 1433 1435 1438 1444 1449 1454 1459 1466 1471 1477 1483 1488 1493 1498 1505 1509 1515 1522 1529 1538 1546 1554 1559
1532 1527 1522 1517 1510 1503 1496 1488 1480 1471 1461 1452 1446 1441 1440 1439 1441 1440 1441 1443 1445 1448 1449 1453 1458 1463 1468 1474 1478 1483 1490 1496 1502 1507 1511 1517 1524 1531 1538 1546 1553 1559 1564
1539 1535 1531 1525 1520 1514 1508 1502 1494 1488 1479 1469 1461 1455 1451 1450 1451 1451 1452 1453 1456 1461 1462 1466 1469 1474 1478 1482 1487 1492 1496 1503 1508 1513 1518 1525 1532 1539 1547 1553 1558 1565 1570
1544 1542 1538 1534 1530 1526 1521 1514 1507 1501 1494 1487 1479 1472 1468 1464 1462 1463 1465 1467 1469 1473 1474 1477 1480 1484 1488 1491 1496 1501 1507 1512 1517 1522 1528 1534 1541 1547 1552 1557 1563 1568 1574
1550 1547 1545 1543 1539 1536 1532 1527 1522 1516 1511 1505 1502 1492 1485 1484 1479 1477 1479 1478 1481 1483 1487 1489 1493 1496 1499 1503 1508 1512 1517 1522 1528 1533 1539 1545 1550 1555 1561 1566 1569 1574 1578
1555 1553 1551 1550 1547 1544 1541 1538 1534 1528 1523 1520 1516 1512 1506 1503 1496 1495 1496 1496 1497 1497 1500 1504 1508 1511 1514 1518 1522 1527 1531 1536 1541 1545 1550 1554 1559 1563 1567 1571 1576 1580 1584
1559 1558 1557 1555 1554 1551 1549 1546 1544 1541 1537 1533 1531 1530 1526 1520 1518 1515 1514 1513 1513 1514 1516 1518 1521 1524 1528 1531 1534 1538 1542 1546 1551 1555 1559 1562 1566 1570 1574 1578 1582 1586 1589
1563 1562 1562 1561 1559 1558 1556 1555 1553 1551 1549 1546 1545 1545 1542 1537 1535 1534 1533 1532 1532 1531 1531 1533 1534 1536 1539 1542 1545 1549 1552 1555 1558 1562 1566 1569 1573 1577 1580 1583 1586 1590 1593
1566 1566 1565 1565 1564 1563 1563 1562 1560 1559 1558 1557 1556 1555 1553 1551 1550 1549 1548 1549 1549 1549 1549 1548 1548 1550 1552 1554 1557 1559 1562 1566 1569 1571 1573 1576 1579 1583 1587 1590 1593 1596 1599
1567 1568 1568 1568 1568 1568 1568 1567 1566 1566 1565 1565 1564 1563 1562 1562 1561 1561 1561 1562 1562 1563 1564 1564 1564 1565 1566 1566 1568 1571 1573 1577 1580 1582 1584 1585 1587 1590 1593 1596 1599 1601 1603
1570 1570 1570 1570 1570 1571 1571 1571 1572 1571 1571 1571 1570 1570 1570 1570 1569 1570 1570 1571 1572 1573 1573 1574 1575 1576 1578 1579 1580 1581 1582 1585 1587 1589 1591 1593 1594 1597 1599 1601 1602 1604 1606
1570 1571 1572 1573 1573 1573 1573 1573 1573 1574 1575 1575 1575 1575 1576 1576 1576 1576 1576 1577 1578 1579 1580 1581 1582 1584 1585 1587 1588 1589 1590 1591 1593 1595 1596 1598 1599 1600 1602 1603 1604 1604 1604
Wind_Speed
26 28 29 28 29 28 31 31 31 31 30 41 36 25 22 19 20 18 21 23 22 22 24 28 27 31 34 36 33 29 28 27 22 25 21 19 19 14 16 19 20 31 32
28 28 28 30 31 31 31 32 32 29 34 28 27 20 19 16 16 17 19 19 21 23 24 24 27 31 32 34 34 31 33 30 25 23 22 20 20 15 17 19 22 32 33
28 29 32 32 31 31 31 31 32 31 22 23 19 18 14 11 13 13 15 18 22 23 24 27 28 30 34 35 34 32 33 31 28 21 21 22 21 19 20 18 21 29 31
28 30 32 33 31 30 29 33 33 24 19 20 19 15 13 9 6 8 12 16 19 22 23 27 28 32 33 35 35 32 34 33 29 25 20 24 23 21 22 23 23 30 31
27 31 34 35 33 31 29 30 31 21 21 21 20 20 19 14 9 8 12 15 18 21 24 28 30 33 33 32 35 35 37 34 31 28 23 27 26 23 23 24 23 33 32
28 32 35 37 38 35 31 30 28 25 26 24 24 25 24 17 9 10 9 11 15 20 26 29 30 30 30 31 34 34 35 35 33 30 26 30 27 21 25 25 28 35 29
28 32 36 38 39 39 36 33 32 26 28 27 29 29 26 14 9 5 3 9 13 19 27 31 32 32 32 32 31 32 32 30 29 30 30 31 26 25 27 26 38 31 35
29 32 35 39 41 43 38 35 32 29 30 32 31 30 24 16 14 16 18 19 19 21 29 33 34 35 34 33 33 31 32 31 29 28 32 25 22 23 20 33 24 35 42
30 33 36 41 45 43 44 48 33 32 30 32 34 32 26 20 20 23 24 24 26 30 33 36 36 36 35 34 35 35 34 34 32 36 28 25 24 22 25 32 30 44 47
29 31 36 41 44 44 51 47 35 30 31 32 35 31 28 23 22 26 29 31 34 37 37 37 35 36 34 35 38 41 42 39 37 36 31 27 24 27 30 37 37 55 53
27 32 35 39 43 47 55 48 37 33 32 37 34 30 30 26 25 29 30 36 38 40 40 39 38 36 37 37 39 40 40 42 38 31 32 25 32 29 34 40 41 42 50
27 31 34 37 43 52 54 50 43 36 36 40 35 33 34 32 28 28 30 36 41 44 42 41 40 40 40 40 38 36 39 41 33 37 27 34 33 36 32 38 50 50 47
25 29 32 37 43 52 54 56 54 42 40 42 40 36 35 36 33 30 29 33 36 44 44 44 43 40 38 36 34 37 37 36 39 29 37 37 39 39 38 42 46 48 48
24 28 32 37 42 48 51 55 55 48 43 42 42 38 31 34 37 37 37 35 35 38 38 39 37 37 38 37 36 35 39 38 31 39 40 41 39 33 44 48 51 49 44
23 26 31 34 39 42 47 52 51 49 43 42 42 38 35 34 33 30 29 31 36 39 39 37 38 36 37 36 37 36 36 28 39 44 44 42 39 36 45 40 46 42 43
22 26 30 32 35 38 42 47 51 51 45 40 39 40 37 34 32 31 30 32 33 34 41 43 42 41 41 39 38 39 37 44 43 44 48 46 42 50 50 47 45 42 42
20 23 26 30 34 37 40 44 50 53 55 48 39 36 34 34 34 33 32 34 37 34 40 40 40 42 41 42 45 48 48 43 41 40 41 44 52 52 45 41 37 39 34
18 20 23 27 30 32 35 40 46 51 56 57 57 45 35 28 30 34 30 31 31 32 36 38 40 42 46 47 48 47 43 43 46 50 50 49 48 44 42 39 36 37 33
15 18 21 23 26 28 31 35 39 45 50 55 55 58 60 48 40 38 36 40 38 37 38 40 40 41 43 45 46 46 48 50 51 48 46 44 40 34 35 31 32 33 30
12 15 17 19 22 24 27 31 34 41 46 49 52 55 59 56 59 55 49 45 44 44 45 48 47 47 47 46 45 44 40 37 38 37 35 33 33 32 32 34 33 29 24
9 11 14 16 19 22 24 28 30 35 39 43 45 46 49 54 55 55 53 52 46 42 40 38 37 36 37 35 34 34 34 33 31 31 31 32 32 30 28 24 22 21 20
8 9 11 13 16 18 21 23 25 29 32 35 37 38 41 45 48 49 50 50 48 48 46 40 37 34 32 31 31 32 31 30 28 27 27 27 27 26 25 24 21 20 19
5 7 9 10 12 14 16 18 20 23 25 28 29 31 35 38 40 42 42 43 42 43 43 44 44 43 41 38 36 33 30 29 27 26 28 28 27 26 25 24 24 24 22
3 4 6 7 8 10 12 13 15 17 19 20 22 25 28 30 32 34 35 35 36 36 36 36 37 36 37 37 37 36 34 33 31 29 27 28 28 26 24 22 21 19 18
0 1 3 4 5 6 8 9 10 11 12 14 16 18 20 22 24 26 27 28 29 29 30 30 30 30 29 29 29 29 30 29 27 25 23 23 23 21 19 17 16 14 12
3 2 1 1 2 3 4 5 6 7 8 9 10 11 13 15 16 18 19 20 20 21 22 23 23 23 22 22 22 22 22 21 20 19 17 16 15 14 13 11 10 9 8
Wind_Direction
334 333 329 328 325 322 320 319 315 315 311 312 312 306 303 302 289 266 264 242 236 228 220 218 215 217 205 208 206 204 201 199 193 190 193 191 194 191 189 186 185 175 165
335 335 332 328 326 324 324 325 324 319 311 312 318 315 308 301 280 260 252 239 230 223 216 207 207 200 202 206 208 205 198 195 187 186 191 182 183 177 182 182 181 178 165
337 337 337 335 334 333 333 332 326 325 329 327 336 338 328 306 280 257 247 238 228 220 213 205 204 195 191 192 195 190 193 191 189 176 177 179 171 170 176 171 174 176 164
347 349 350 349 347 344 343 342 342 344 344 355 358 359 5 342 308 262 246 233 221 211 206 197 193 184 191 187 187 183 184 186 187 179 165 171 169 168 181 167 165 170 161
0 0 1 1 359 355 351 347 347 357 8 18 17 21 21 13 359 270 256 229 211 200 194 190 189 187 189 186 181 184 182 180 182 175 164 163 165 162 170 167 165 162 159
7 6 7 10 9 5 2 1 3 16 22 29 29 30 29 24 322 288 253 215 198 185 180 179 179 177 178 181 180 183 183 180 175 170 161 159 164 160 165 164 163 156 152
12 12 13 15 15 15 13 11 13 22 29 35 37 37 36 27 2 8 104 146 151 166 169 168 167 168 167 165 172 180 176 177 172 162 153 154 161 164 163 162 152 156 145
16 17 16 19 21 21 17 20 22 31 36 39 43 44 45 44 50 79 98 114 123 138 160 160 157 162 162 159 161 163 164 166 161 151 142 153 156 156 167 156 150 154 144
20 19 21 23 25 23 28 20 28 36 44 49 51 52 54 61 74 90 100 106 114 127 139 150 154 157 154 156 154 151 152 150 143 141 145 148 154 149 157 156 153 158 146
22 22 24 26 27 27 33 22 37 45 51 58 59 61 64 78 88 98 99 104 116 126 134 142 148 148 148 147 146 148 147 148 150 145 137 148 147 146 152 159 163 159 152
21 25 26 26 30 33 38 27 43 51 60 65 67 68 72 85 92 99 105 106 114 123 130 135 137 138 138 140 143 141 140 140 142 138 145 144 146 151 159 159 170 167 153
23 27 26 26 30 38 38 36 47 56 61 68 73 73 80 87 97 100 105 107 114 116 123 129 130 130 133 136 136 138 141 144 140 143 141 148 150 149 153 166 158 155 162
27 29 29 31 33 38 38 39 41 52 62 66 72 78 84 91 97 99 102 106 111 116 119 118 119 124 129 134 135 139 146 146 147 148 153 151 156 156 158 160 159 161 162
29 31 32 35 36 39 41 43 40 48 59 68 75 81 86 96 100 103 105 105 105 108 114 117 120 125 128 131 140 150 153 152 148 149 150 152 148 151 153 152 153 156 155
29 33 38 40 42 43 47 50 49 46 57 66 74 82 88 90 99 108 108 108 117 121 123 124 127 131 133 136 141 146 151 150 151 154 159 154 157 156 156 158 155 156 162
32 37 40 44 48 48 53 57 60 57 59 71 80 87 95 110 114 115 115 119 123 128 128 129 132 136 139 143 146 149 150 149 154 153 155 158 152 151 143 152 157 164 162
38 41 42 46 47 48 51 56 61 63 62 69 77 90 104 117 122 121 127 129 131 131 124 128 132 137 142 144 147 148 147 151 153 155 156 156 148 146 147 146 158 166 160
42 44 46 49 50 51 53 57 60 61 63 64 71 79 92 108 123 125 129 130 129 124 128 131 129 136 140 144 144 145 146 150 150 146 143 141 142 147 150 157 166 166 160
45 47 49 50 52 55 57 60 64 68 67 70 71 74 81 86 99 114 122 112 117 117 120 122 126 129 134 137 139 141 141 139 141 140 141 145 147 148 151 158 157 158 159
48 51 52 54 56 57 62 66 66 67 70 69 70 71 74 79 79 84 95 106 110 113 116 117 118 119 122 122 123 120 121 133 140 142 143 146 149 153 154 155 157 156 156
49 52 56 57 59 60 60 63 67 70 71 71 72 72 75 77 78 80 83 86 92 102 113 117 116 120 122 126 130 130 134 135 138 140 144 148 152 153 151 149 146 144 142
52 53 55 58 59 62 64 65 65 70 74 76 77 78 79 80 81 82 82 83 87 91 96 103 109 113 117 120 117 124 124 124 127 133 135 138 136 136 136 137 138 139 137
48 53 54 56 60 63 64 67 68 70 72 78 81 82 82 84 85 86 86 87 88 89 92 97 101 102 103 104 105 108 111 115 118 122 124 123 123 123 124 125 125 125 124
24 36 51 60 63 65 67 69 70 72 75 75 78 83 85 87 88 91 92 93 94 94 95 96 97 99 103 106 108 107 106 106 109 111 115 117 117 116 119 121 122 121 120
324 47 44 41 47 57 68 75 79 80 78 79 82 84 86 89 91 92 93 95 96 99 100 100 102 104 105 106 107 110 112 114 114 114 117 118 118 118 117 117 117 120 122
258 237 204 145 101 75 56 53 57 66 81 90 91 92 93 94 94 96 96 95 94 95 96 99 101 102 103 105 107 107 108 108 108 107 104 102 101 103 101 96 91 83 76